GW3984 Weather Reports


Display with metric or nautical units.
time (UTC)temp
F
wind
direction
speed
MPH
gust
MPH
rain 1hr
in
rain 24hr
in
rain mn
in
humidity
%
barometer
mb
20260904115733 78 127 0.0 1.0 0.00 0.00 0.00 87 1013.7
20260904114750 78 124 0.0 2.0 0.00 0.00 0.00 86 1013.5
20260904114527 78 132 0.0 4.0 0.00 0.00 0.00 86 1014.2
20260904113715 78 107 0.0 3.0 0.00 0.00 0.00 86 1013.3
20260904113030 78 162 0.0 3.0 0.00 0.00 0.00 85 1013.9
20260904112710 79 93 0.0 3.0 0.00 0.00 0.00 85 1013.3
20260904111730 79 189 0.0 3.0 0.00 0.00 0.00 85 1013.4
20260904111527 78 113 2.0 4.0 0.00 0.00 0.00 84 1014.0
20260904110718 79 170 0.0 1.0 0.00 0.00 0.00 85 1013.3
20260904110026 78 131 0.0 2.0 0.00 0.00 0.00 84 1013.9
20260904104554 79 104 0.0 2.0 0.00 0.00 0.00 85 1013.2
20260904104523 78 111 1.0 3.0 0.00 0.00 0.00 84 1013.9
20260904103017 78 125 1.0 3.0 0.00 0.00 0.00 84 1013.8
20260904102414 79 141 0.0 6.0 0.00 0.00 0.00 85 1013.1
20260904101515 78 221 1.0 8.0 0.00 0.00 0.00 84 1013.7
20260904100314 79 129 0.0 6.0 0.00 0.00 0.00 85 1013.1
20260904100013 78 190 3.0 7.0 0.00 0.00 0.00 84 1013.6
20260904095326 79 145 1.0 5.0 0.00 0.00 0.00 85 1013.0
20260904094532 78 160 2.0 6.0 0.00 0.00 0.00 84 1013.7
20260904094257 79 74 0.0 4.0 0.00 0.00 0.00 85 1013.0
20260904093246 79 152 0.0 2.0 0.00 0.00 0.00 85 1013.0
20260904093051 78 185 0.0 6.0 0.00 0.00 0.00 84 1013.7
20260904092227 78 166 0.0 4.0 0.00 0.00 0.00 85 1012.9
20260904091526 78 110 0.0 3.0 0.00 0.00 0.00 84 1013.6
20260904090130 79 194 0.0 1.0 0.00 0.00 0.00 85 1013.1
20260904090025 78 131 0.0 7.0 0.00 0.00 0.00 84 1013.7
20260904085112 79 89 0.0 4.0 0.00 0.00 0.00 85 1013.0
20260904084523 78 90 1.0 4.0 0.00 0.00 0.00 85 1013.7
20260904084039 78 179 0.0 0.0 0.00 0.00 0.00 85 1013.0
20260904083035 79 150 0.0 1.0 0.00 0.00 0.00 85 1013.0
20260904083021 78 115 0.0 4.0 0.00 0.00 0.00 84 1013.6
20260904082006 79 178 0.0 3.0 0.00 0.00 0.00 84 1013.1
20260904081515 78 157 1.0 4.0 0.00 0.00 0.00 84 1013.7
20260904080945 79 103 0.0 0.0 0.00 0.00 0.00 84 1013.1
20260904080014 79 130 0.0 4.0 0.00 0.00 0.00 83 1013.9
20260904075913 79 100 0.0 4.0 0.00 0.00 0.00 83 1013.3
20260904074849 79 119 0.0 4.0 0.00 0.00 0.00 83 1013.3
20260904074533 79 158 2.0 6.0 0.00 0.00 0.00 82 1014.0
20260904073819 80 82 0.0 4.0 0.00 0.00 0.00 82 1013.3
20260904073049 79 207 1.0 6.0 0.00 0.00 0.00 81 1014.1
20260904072844 80 109 0.0 3.0 0.00 0.00 0.00 82 1013.4
20260904071847 80 236 0.0 3.0 0.00 0.00 0.00 82 1013.5
20260904071534 79 198 1.0 4.0 0.00 0.00 0.00 81 1014.2
20260904070031 79 167 0.0 6.0 0.00 0.00 0.00 81 1014.3
20260904064533 80 109 1.0 5.0 0.00 0.00 0.00 80 1013.7
20260904064528 80 110 2.0 7.0 0.00 0.00 0.00 80 1014.4
20260904063555 80 195 0.0 0.0 0.00 0.00 0.00 81 1013.8
20260904063024 80 115 1.0 9.0 0.00 0.00 0.00 80 1014.4
20260904061523 80 110 2.0 9.0 0.00 0.00 0.00 80 1014.4
20260904061356 80 98 1.0 6.0 0.00 0.00 0.00 80 1013.7
20260904060402 80 160 0.0 5.0 0.00 0.00 0.00 80 1013.7
20260904060020 80 182 1.0 6.0 0.00 0.00 0.00 79 1014.3
20260904054534 80 136 2.0 11.0 0.00 0.00 0.00 78 1014.3
20260904054245 81 265 1.0 9.0 0.00 0.00 0.00 79 1013.7
20260904053300 81 119 0.0 5.0 0.00 0.00 0.00 79 1013.6
20260904053032 80 101 1.0 7.0 0.00 0.00 0.00 79 1014.3
20260904052308 81 94 0.0 5.0 0.00 0.00 0.00 79 1013.6
20260904051531 80 115 0.0 8.0 0.00 0.00 0.00 78 1014.1
20260904051332 81 154 0.0 5.0 0.00 0.00 0.00 79 1013.5
20260904050329 81 139 2.0 9.0 0.00 0.00 0.00 78 1013.5
20260904050030 81 126 4.0 11.0 0.00 0.00 0.00 77 1014.2
20260904045338 82 68 1.0 9.0 0.00 0.00 0.00 77 1013.5
20260904044507 81 71 3.0 8.0 0.00 0.00 0.00 75 1014.1
20260904044347 82 136 2.0 7.0 0.00 0.00 0.00 76 1013.5
20260904043400 82 142 2.0 9.0 0.00 0.00 0.00 74 1013.4
20260904043004 82 117 4.0 11.0 0.00 0.00 0.00 73 1014.1
20260904042414 83 212 2.0 11.0 0.00 0.00 0.00 72 1013.4
20260904041528 83 200 3.0 13.0 0.00 0.00 0.00 71 1014.0
20260904041414 83 77 2.0 11.0 0.00 0.00 0.00 71 1013.3
20260904040359 83 163 1.0 9.0 0.00 0.00 0.00 69 1013.3
20260904040024 83 138 3.0 10.0 0.00 0.00 0.00 68 1013.9
20260904034522 83 146 3.0 9.0 0.00 0.00 0.00 68 1014.0
20260904033110 84 105 2.0 6.0 0.00 0.00 0.00 67 1013.2
20260904033016 84 132 3.0 8.0 0.00 0.00 0.00 67 1013.8
20260904032109 84 154 2.0 6.0 0.00 0.00 0.00 66 1012.9
20260904031509 84 160 4.0 7.0 0.00 0.00 0.00 66 1013.7
20260904031127 85 101 0.0 4.0 0.00 0.00 0.00 66 1012.9
20260904030146 85 207 1.0 5.0 0.00 0.00 0.00 65 1012.7
20260904030010 84 142 1.0 7.0 0.00 0.00 0.00 65 1013.4
20260904025149 85 147 2.0 7.0 0.00 0.00 0.00 65 1012.5
20260904024506 84 82 2.0 9.0 0.00 0.00 0.00 65 1013.1
20260904024120 85 126 1.0 7.0 0.00 0.00 0.00 65 1012.3
20260904023059 85 110 0.0 6.0 0.00 0.00 0.00 64 1012.3
20260904023006 84 106 0.0 8.0 0.00 0.00 0.00 63 1013.0
20260904022103 85 130 0.0 5.0 0.00 0.00 0.00 63 1012.3
20260904021531 85 132 1.0 7.0 0.00 0.00 0.00 62 1012.9
20260904021121 85 110 0.0 5.0 0.00 0.00 0.00 62 1012.0
20260904020128 86 155 1.0 4.0 0.00 0.00 0.00 61 1011.8
20260904020024 85 150 2.0 7.0 0.00 0.00 0.00 61 1012.6
20260904015111 86 146 1.0 5.0 0.00 0.00 0.00 61 1011.7
20260904014520 86 142 2.0 7.0 0.00 0.00 0.00 60 1012.5
20260904013019 86 118 2.0 11.0 0.00 0.00 0.00 59 1012.3
20260904012945 87 55 2.0 10.0 0.00 0.00 0.00 60 1011.5
20260904011956 87 134 2.0 10.0 0.00 0.00 0.00 60 1011.4
20260904011517 87 140 3.0 12.0 0.00 0.00 0.00 60 1011.9
20260904010954 87 75 2.0 7.0 0.00 0.00 0.00 61 1011.2
20260904010011 87 163 3.0 10.0 0.00 0.00 0.00 61 1011.7
20260904005958 87 131 2.0 8.0 0.00 0.00 0.00 62 1010.9
20260904005017 88 122 2.0 9.0 0.00 0.00 0.00 61 1010.9
20260904004511 87 146 4.0 11.0 0.00 0.00 0.00 60 1011.7
20260904004010 88 88 3.0 12.0 0.00 0.00 0.00 60 1011.0
20260904003034 89 146 2.0 12.0 0.00 0.00 0.00 58 1010.7
20260904003009 88 132 4.0 14.0 0.00 0.00 0.00 57 1011.5
20260904002008 90 166 2.0 9.0 0.00 0.00 0.00 55 1010.6
20260904001529 90 161 5.0 10.0 0.00 0.00 0.00 53 1011.5
20260904000946 92 152 2.0 7.0 0.00 0.00 0.00 51 1010.5
20260904000032 92 134 2.0 9.0 0.00 0.00 0.00 49 1011.2
20260903235918 93 137 1.0 8.0 0.00 0.00 0.00 50 1010.4
20260903234937 92 150 2.0 8.0 0.00 0.00 0.00 49 1010.3
20260903234527 92 119 2.0 9.0 0.00 0.00 0.00 48 1011.2
20260903233941 93 181 1.0 6.0 0.00 0.00 0.00 49 1010.4
20260903233024 92 135 1.0 9.0 0.00 0.00 0.00 48 1011.2
20260903232913 93 120 1.0 6.0 0.00 0.00 0.00 48 1010.3
20260903231844 94 117 3.0 9.0 0.00 0.00 0.00 46 1010.2
20260903231518 94 128 4.0 10.0 0.00 0.00 0.00 47 1011.1
20260903230908 94 184 3.0 9.0 0.00 0.00 0.00 47 1010.2
20260903230032 95 136 3.0 10.0 0.00 0.00 0.00 45 1011.0
20260903225853 95 129 2.0 8.0 0.00 0.00 0.00 46 1010.1
20260903224900 96 153 2.0 8.0 0.00 0.00 0.00 46 1010.0
20260903224513 96 144 3.0 11.0 0.00 0.00 0.00 45 1010.7
20260903223901 97 322 1.0 8.0 0.00 0.00 0.00 44 1009.9
20260903223032 97 78 1.0 9.0 0.00 0.00 0.00 41 1010.7
20260903222901 97 153 2.0 8.0 0.00 0.00 0.00 41 1009.9
20260903221534 96 144 1.0 8.0 0.00 0.00 0.00 42 1010.7
20260903220724 96 102 1.0 6.0 0.00 0.00 0.00 43 1009.9
20260903220034 98 119 2.0 8.0 0.00 0.00 0.00 43 1010.8
20260903215711 98 144 1.0 6.0 0.00 0.00 0.00 43 1009.9
20260903214641 97 137 0.0 5.0 0.00 0.00 0.00 44 1010.0
20260903214539 97 155 1.0 7.0 0.00 0.00 0.00 43 1011.0
20260903213635 96 134 1.0 5.0 0.00 0.00 0.00 43 1010.1
20260903213028 96 88 1.0 6.0 0.00 0.00 0.00 43 1011.1
20260903212628 96 136 0.0 2.0 0.00 0.00 0.00 45 1010.3
20260903211614 96 170 0.0 2.0 0.00 0.00 0.00 45 1010.4
20260903211524 95 171 1.0 3.0 0.00 0.00 0.00 44 1011.3
20260903210614 96 152 0.0 6.0 0.00 0.00 0.00 43 1010.5
20260903210035 96 136 1.0 8.0 0.00 0.00 0.00 45 1011.5
20260903205625 97 134 0.0 6.0 0.00 0.00 0.00 43 1010.6
20260903204524 97 140 1.0 5.0 0.00 0.00 0.00 40 1011.8
20260903203434 97 349 0.0 5.0 0.00 0.00 0.00 43 1011.0
20260903203012 97 129 1.0 7.0 0.00 0.00 0.00 43 1011.9
20260903202455 97 357 1.0 5.0 0.00 0.00 0.00 45 1011.2
20260903201536 96 183 3.0 6.0 0.00 0.00 0.00 45 1012.1
20260903201519 97 209 0.0 4.0 0.00 0.00 0.00 45 1011.3
20260903200458 96 175 1.0 6.0 0.00 0.00 0.00 45 1011.4
20260903200030 96 153 1.0 4.0 0.00 0.00 0.00 45 1012.2
20260903194533 97 67 1.0 3.0 0.00 0.00 0.00 46 1012.4
20260903194316 97 77 0.0 5.0 0.00 0.00 0.00 47 1011.5
20260903193029 96 171 1.0 7.0 0.00 0.00 0.00 47 1012.7
20260903192200 97 184 0.0 4.0 0.00 0.00 0.00 50 1011.9
20260903191503 97 333 1.0 4.0 0.00 0.00 0.00 50 1012.9
20260903191157 98 307 0.0 3.0 0.00 0.00 0.00 50 1012.1
20260903190148 97 94 0.0 5.0 0.00 0.00 0.00 50 1012.2
20260903190004 95 319 1.0 7.0 0.00 0.00 0.00 49 1013.1
20260903185128 95 106 1.0 5.0 0.00 0.00 0.00 49 1012.5
20260903184518 95 127 3.0 6.0 0.00 0.00 0.00 47 1013.5
20260903184110 96 39 0.0 4.0 0.00 0.00 0.00 47 1012.7
20260903183019 95 286 1.0 9.0 0.00 0.00 0.00 48 1013.7
20260903181940 95 293 0.0 7.0 0.00 0.00 0.00 49 1013.0
20260903181517 94 105 1.0 9.0 0.00 0.00 0.00 51 1014.0
20260903180918 95 147 0.0 7.0 0.00 0.00 0.00 50 1013.2
20260903180034 93 313 0.0 4.0 0.00 0.00 0.00 53 1014.1
20260903175908 94 99 0.0 2.0 0.00 0.00 0.00 54 1013.3
20260903174843 92 217 0.0 7.0 0.00 0.00 0.00 59 1013.4
20260903174509 90 191 2.0 9.0 0.00 0.00 0.00 57 1014.3
20260903173003 89 115 0.0 5.0 0.00 0.00 0.00 60 1014.6
20260903172635 90 195 0.0 5.0 0.00 0.00 0.00 59 1013.7
20260903171509 91 129 1.0 7.0 0.00 0.00 0.00 57 1014.9
20260903170447 89 122 0.0 5.0 0.00 0.00 0.00 62 1014.0
20260903170005 89 168 1.0 7.0 0.00 0.00 0.00 61 1015.0
20260903165509 88 323 1.0 5.0 0.00 0.00 0.00 66 1014.1
20260903164532 89 194 1.0 6.0 0.00 0.00 0.00 62 1015.0
20260903163308 88 114 0.0 4.0 0.00 0.00 0.00 64 1014.3
20260903163018 89 77 1.0 6.0 0.00 0.00 0.00 63 1015.1
20260903162330 89 117 0.0 4.0 0.00 0.00 0.00 64 1014.3
20260903161525 90 335 1.0 4.0 0.00 0.00 0.00 63 1015.1
20260903161331 90 0 0.0 6.0 0.00 0.00 0.00 63 1014.2
20260903160349 90 99 0.0 6.0 0.00 0.00 0.00 66 1014.2
20260903160014 88 337 2.0 8.0 0.00 0.00 0.00 66 1015.1
20260903155403 89 146 0.0 0.0 0.00 0.00 0.00 68 1014.2
20260903154513 88 159 1.0 8.0 0.00 0.00 0.00 66 1015.0
20260903154400 89 175 0.0 6.0 0.00 0.00 0.00 67 1014.2
20260903153008 87 165 1.0 4.0 0.00 0.00 0.00 68 1015.0
20260903152211 87 308 0.0 4.0 0.00 0.00 0.00 72 1014.2
20260903151507 86 75 0.0 3.0 0.00 0.00 0.00 74 1015.0
20260903151216 85 354 0.0 4.0 0.00 0.00 0.00 75 1014.2
20260903150144 83 192 0.0 4.0 0.00 0.00 0.00 75 1014.2
20260903150038 83 207 1.0 4.0 0.00 0.00 0.00 75 1015.0
20260903145206 84 132 0.0 2.0 0.00 0.00 0.00 74 1014.2
20260903144527 85 173 0.0 3.0 0.00 0.00 0.00 74 1015.0
20260903144219 86 95 0.0 2.0 0.00 0.00 0.00 74 1014.2
20260903143144 84 321 0.0 1.0 0.00 0.00 0.00 77 1014.3
20260903143036 83 186 0.0 2.0 0.00 0.00 0.00 76 1015.2
20260903142148 84 1 0.0 1.0 0.00 0.00 0.00 77 1014.4
20260903141525 84 99 2.0 6.0 0.00 0.00 0.00 77 1015.2
20260903141144 83 224 0.0 4.0 0.00 0.00 0.00 79 1014.4
20260903140208 83 207 0.0 2.0 0.00 0.00 0.00 81 1014.4
20260903140022 82 121 1.0 3.0 0.00 0.00 0.00 81 1015.2
20260903135215 80 135 0.0 4.0 0.00 0.00 0.00 83 1014.4
20260903134539 80 123 0.0 2.0 0.00 0.00 0.00 83 1015.2
20260903133114 80 109 0.0 0.0 0.00 0.00 0.00 84 1014.5
20260903133014 79 22 0.0 4.0 0.00 0.00 0.00 84 1015.2
20260903132050 79 1 0.0 6.0 0.00 0.00 0.00 84 1014.5
20260903131509 79 87 1.0 8.0 0.00 0.00 0.00 83 1015.2
20260903131058 79 359 0.0 2.0 0.00 0.00 0.00 84 1014.5
20260903130117 79 187 0.0 2.0 0.00 0.00 0.00 85 1014.4
20260903130006 79 298 1.0 3.0 0.00 0.00 0.00 84 1015.2
20260903125100 79 181 0.0 2.0 0.00 0.00 0.00 85 1014.3
20260903124527 78 69 0.0 2.0 0.00 0.00 0.00 84 1014.9
20260903123035 78 56 0.0 2.0 0.00 0.00 0.00 84 1014.9
20260903122958 79 51 0.0 0.0 0.00 0.00 0.00 85 1014.1
20260903121924 79 117 0.0 0.0 0.00 0.00 0.00 85 1014.0
20260903121529 79 136 0.0 4.0 0.00 0.00 0.00 84 1014.8
20260903120024 79 118 0.0 2.0 0.00 0.00 0.00 84 1014.7